Flag for Germany Weather past 2 weeks in Garmisch-Partenkirchen, Bavaria, Germany

Now
50 °F

Passing clouds.


Feels Like: 48 °F
Forecast: 43 / 63 °F
Wind: 5 mph from West

Location: Innsbruck-Flughafen

Current Time: Apr 26, 2015 at 1:58:41 AM

Latest Report: Apr 26, 2015 at 1:20 AM


Visibility: N/A

Pressure: 29.92 "Hg

Humidity: 76%

Dew point: 43 °F

Location of Garmisch-PartenkirchenLocation

Historic Weather in Garmisch-Partenkirchen — Graph

°F

Garmisch-Partenkirchen temperature yesterday

Maximum temperature yesterday: 68 °F (at 1:20 PM)
Minimum temperature yesterday: 39 °F (at 5:20 AM)
Average temperature yesterday: 55 °F

Past Weeks' High & Low Weather Summary

 TemperatureHumidityPressure
High79 °F (Apr 15, 6:20 PM)94% (Apr 17, 8:20 PM)30.45 "Hg (Apr 17, 8:20 PM)
Low30 °F (Apr 19, 4:20 AM)13% (Apr 15, 6:20 PM)29.86 "Hg (Apr 17, 4:50 PM)
Average53 °F59%30.15 "Hg
* Reported Apr 11 12:20 AM — Apr 26 12:20 AM, Garmisch-Partenkirchen, Weather by CustomWeather, © 2015

Note: Actual official high and low records may vary slightly from our data, if they occured in-between our weather recording intervals... More about our weather records

Advertising

Garmisch-Partenkirchen weather history for previous 24 hours

 ConditionsComfort  
Time TempWeatherWind HumidityBarometerVisibility
12:20 AM
Sun, Apr 26
52 °FPassing clouds.5 mph72%29.92 "HgN/A
11:50 PM
Sat, Apr 25
54 °FPassing clouds.3 mph67%29.89 "HgN/A
10:50 PM55 °FPartly cloudy.2 mph67%29.92 "HgN/A
10:20 PM57 °FPartly cloudy.2 mph63%29.92 "HgN/A
9:50 PM59 °FPassing clouds.1 mph55%29.92 "HgN/A
9:20 PM61 °FPartly cloudy.6 mph52%29.92 "HgN/A
8:50 PM61 °FBroken clouds.12 mph52%29.89 "HgN/A
8:20 PM61 °FBroken clouds.13 mph52%29.89 "HgN/A
7:50 PM63 °FBroken clouds.12 mph49%29.89 "HgN/A
7:20 PM63 °FBroken clouds.13 mph49%29.89 "HgN/A
6:50 PM63 °FBroken clouds.14 mph49%29.86 "HgN/A
6:20 PM63 °FBroken clouds.14 mph49%29.86 "HgN/A
5:50 PM64 °FBroken clouds.14 mph46%29.86 "HgN/A
5:20 PM64 °FBroken clouds.15 mph43%29.86 "HgN/A
4:50 PM66 °FBroken clouds.17 mph40%29.86 "HgN/A
4:20 PM66 °FBroken clouds.15 mph40%29.86 "HgN/A
3:50 PM66 °FBroken clouds.14 mph37%29.86 "HgN/A
3:20 PM66 °FBroken clouds.14 mph37%29.86 "HgN/A
2:50 PM68 °FBroken clouds.12 mph35%29.86 "HgN/A
2:20 PM68 °FBroken clouds.14 mph33%29.86 "HgN/A
1:50 PM68 °FMore clouds than sun.16 mph33%29.86 "HgN/A
1:20 PM68 °FMore clouds than sun.7 mph38%29.89 "HgN/A
12:50 PM66 °FMore clouds than sun.6 mph40%29.89 "HgN/A
12:20 PM64 °FPartly sunny.8 mph43%29.92 "HgN/A
11:50 AM64 °FSunny.7 mph43%29.92 "Hg10 mi
11:20 AM63 °FSunny.8 mph45%29.92 "Hg10 mi
10:50 AM59 °FSunny.9 mph51%29.95 "Hg10 mi
10:20 AM57 °FSunny.12 mph48%29.95 "Hg10 mi
9:50 AM54 °FSunny.13 mph58%29.98 "Hg10 mi
9:20 AM52 °FSunny.9 mph58%29.98 "Hg10 mi
8:50 AM50 °FSunny.13 mph62%29.98 "Hg10 mi
8:20 AM46 °FSunny.10 mph71%30.01 "Hg10 mi
7:50 AM45 °FPassing clouds.8 mph71%30.01 "HgN/A
7:20 AM43 °FPassing clouds.5 mph76%30.01 "HgN/A
6:50 AM41 °FClear.7 mph76%29.98 "Hg10 mi
6:20 AM41 °FClear.7 mph76%29.98 "Hg10 mi
5:50 AM41 °FPassing clouds.5 mph76%29.98 "HgN/A
5:20 AM39 °FChilly.3 mph81%29.98 "HgN/A
4:50 AM43 °FQuite cool.6 mph76%29.98 "HgN/A
4:20 AM43 °FQuite cool.3 mph76%30.01 "HgN/A
3:50 AM43 °FQuite cool.5 mph76%29.98 "HgN/A
3:20 AM41 °FQuite cool.7 mph81%29.98 "HgN/A
2:50 AM45 °FQuite cool.5 mph76%29.98 "HgN/A
2:20 AM43 °FQuite cool.2 mph81%30.01 "HgN/A
1:50 AM45 °FQuite cool.3 mph76%30.01 "HgN/A
1:20 AM46 °FCool.2 mph71%29.98 "HgN/A
Weather by CustomWeather, © 2015

See weather overviewHow to use our weather pages